Weather History for Craig, CO

Change the Weather History Date:

Friday, November 29, 2013

  Actual Average Record
Temperature  
Mean Temperature 32 °F 24 °F  
Max Temperature 46 °F 36 °F 56 °F (2012)
Min Temperature 18 °F 12 °F -15 °F (2004)
Degree Days  
Heating Degree Days 33 41  
Month to date heating degree days 975 998  
Since 1 July heating degree days 1865 2043  
Cooling Degree Days 0 0  
Month to date cooling degree days 0 0  
Year to date cooling degree days 377 142  
Moisture  
Dew Point 22 °F    
Average Humidity 73    
Maximum Humidity 100    
Minimum Humidity 45    
Precipitation  
Precipitation 0.00 in 0.04 in 0.07 in (2005)
Month to date precipitation 0.94 1.41  
Year to date precipitation 12.45 15.02  
Sea Level Pressure  
Sea Level Pressure 30.40 in    
Wind  
Wind Speed 1 mph (WSW)    
Max Wind Speed 10 mph    
Max Gust Speed 13 mph    
Visibility 10 miles    
Events      
T = Trace of Precipitation, MM = Missing Value Source: NWS Daily Summary

Daily Weather History Graph

Daily Weather History Graph

Search for Another Location

Airport:

Trip Planner

Search our weather history database for the weather conditions in past years. The results will help you decide how hot, cold, wet, or windy it might be!

Date:

Astronomy

Nov. 29, 2013 Rise Set
Actual Time 7:12 AM MST 4:44 PM MST
Civil Twilight 6:42 AM MST 5:14 PM MST
Nautical Twilight 6:08 AM MST 5:48 PM MST
Astronomical Twilight 5:35 AM MST 6:21 PM MST
Moon 3:20 AM MST (11/29) 2:31 PM MST (11/29)
Length of Visible Light 10h 32m
Length of Day
9h 32m
Waning Crescent, 13% of the Moon is Illuminated
Nov 29
Waning Crescent
Dec 2
New
Dec 9
First Quarter
Dec 17
Full
Dec 25
Last Quarter

Hourly Weather History & Observations

Time (MST) Temp. Windchill Dew Point Humidity Pressure Visibility Wind Dir Wind Speed Gust Speed Precip Events Conditions
12:53 AM 19.9 °F - 17.1 °F 89% 30.35 in 10.0 mi Calm Calm - N/A   Clear
1:53 AM 21.0 °F - 19.0 °F 92% 30.35 in 10.0 mi Calm Calm - N/A   Clear
2:53 AM 21.9 °F - 19.9 °F 92% 30.36 in 10.0 mi Calm Calm - N/A   Partly Cloudy
3:53 AM 23.0 °F - 21.0 °F 92% 30.35 in 10.0 mi Calm Calm - N/A   Overcast
4:53 AM 21.0 °F - 19.0 °F 92% 30.40 in 10.0 mi Calm Calm - N/A   Scattered Clouds
5:53 AM 19.0 °F - 17.1 °F 92% 30.43 in 10.0 mi Calm Calm - N/A   Mostly Cloudy
6:53 AM 18.0 °F - 16.0 °F 92% 30.47 in 10.0 mi Calm Calm - N/A   Clear
7:53 AM 19.9 °F - 19.0 °F 96% 30.48 in 10.0 mi Calm Calm - N/A   Clear
8:53 AM 26.1 °F - 21.9 °F 84% 30.46 in 10.0 mi Calm Calm - N/A   Clear
9:53 AM 28.9 °F - 26.1 °F 89% 30.45 in 10.0 mi Calm Calm - N/A   Clear
10:53 AM 39.0 °F - 27.0 °F 62% 30.40 in 10.0 mi Calm Calm - N/A   Clear
11:53 AM 43.0 °F - 26.1 °F 51% 30.37 in 10.0 mi Calm Calm - N/A   Clear
12:53 PM 44.1 °F 40.8 °F 27.0 °F 51% 30.35 in 10.0 mi West 5.8 mph - N/A   Clear
1:53 PM 45.0 °F 40.6 °F 27.0 °F 49% 30.32 in 10.0 mi West 8.1 mph - N/A   Clear
2:53 PM 46.0 °F 42.5 °F 26.1 °F 46% 30.30 in 10.0 mi WSW 6.9 mph - N/A   Clear
3:53 PM 44.1 °F 41.5 °F 26.1 °F 49% 30.30 in 10.0 mi West 4.6 mph - N/A   Clear
4:53 PM 34.0 °F 28.8 °F 26.1 °F 73% 30.37 in 10.0 mi SSW 5.8 mph - N/A   Clear
5:53 PM 30.9 °F - 25.0 °F 79% 30.42 in 10.0 mi Calm Calm - N/A   Clear
6:53 PM 28.0 °F - 23.0 °F 81% 30.45 in 10.0 mi Calm Calm - N/A   Clear
7:53 PM 24.1 °F - 21.9 °F 91% 30.47 in 10.0 mi Calm Calm - N/A   Clear
8:53 PM 24.1 °F - 21.0 °F 88% 30.44 in 10.0 mi Calm Calm - N/A   Clear
9:53 PM 21.9 °F - 19.9 °F 92% 30.44 in 10.0 mi Calm Calm - N/A   Clear
10:53 PM 21.0 °F - 19.0 °F 92% 30.40 in 10.0 mi Calm Calm - N/A   Clear
11:53 PM 21.9 °F - 19.0 °F 89% 30.39 in 10.0 mi Calm Calm - N/A   Clear